When you browse on this site, cookies collect data to enhance your experience and personalize the content and advertising you see.
Visit our Privacy Policy to learn more. By continuing to use the site, you agree to this use of cookies and data.
  • In United Kingdom
  • List of Countries
  • For 7 days
  • Water Temperature
  • Weather Map
  • Weather Widgets
  • user-avatar
    Login

    Hourly Weather Barrow in Furness

    Today, 5 June, Friday

    Time Temperature Precipitation Wind Pressure Humidity
    00:00 +6°C° 0 mm 7 mps 747 mmHg 93%
    01:00 +7°C° 0.1 mm 6 mps 747 mmHg 92%
    02:00 +7°C° 0.1 mm 5 mps 747 mmHg 92%
    03:00 +7°C° 0.1 mm 4 mps 746 mmHg 92%
    04:00 +7°C° 0.4 mm 4 mps 746 mmHg 91%
    05:00 +7°C° 0.4 mm 5 mps 746 mmHg 90%
    06:00 +7°C° 0.4 mm 5 mps 746 mmHg 89%
    07:00 +7°C° 0.2 mm 6 mps 746 mmHg 84%
    08:00 +7°C° 0.2 mm 8 mps 746 mmHg 79%
    09:00 +8°C° 0.2 mm 9 mps 746 mmHg 73%
    10:00 +8°C° 0.1 mm 9 mps 746 mmHg 71%
    11:00 +9°C° 0.1 mm 10 mps 746 mmHg 68%
    12:00 +11°C° 0.1 mm 11 mps 746 mmHg 66%
    13:00 +11°C° 0.2 mm 11 mps 745 mmHg 65%
    14:00 +10°C° 0.2 mm 12 mps 745 mmHg 65%
    15:00 +10°C° 0.2 mm 13 mps 745 mmHg 65%
    16:00 +9°C° 0.1 mm 13 mps 745 mmHg 64%
    17:00 +9°C° 0.1 mm 14 mps 745 mmHg 64%
    18:00 +8°C° 0.1 mm 14 mps 745 mmHg 64%
    19:00 +8°C° 0 mm 14 mps 745 mmHg 67%
    20:00 +6°C° 0 mm 14 mps 745 mmHg 70%
    21:00 +5°C° 0 mm 14 mps 745 mmHg 73%
    22:00 +5°C° 0.3 mm 14 mps 744 mmHg 79%
    23:00 +5°C° 0.3 mm 14 mps 743 mmHg 85%

    Tomorrow, 6 June, Saturday

    Time Temperature Precipitation Wind Pressure Humidity
    00:00 +5°C° 0.3 mm 15 mps 743 mmHg 90%
    01:00 +6°C° 1.4 mm 14 mps 742 mmHg 91%
    02:00 +7°C° 1.4 mm 12 mps 742 mmHg 92%
    03:00 +8°C° 1.4 mm 11 mps 741 mmHg 93%
    04:00 +8°C° 0.4 mm 11 mps 741 mmHg 91%
    05:00 +8°C° 0.4 mm 11 mps 741 mmHg 89%
    06:00 +9°C° 0.4 mm 10 mps 741 mmHg 87%
    07:00 +9°C° 0.1 mm 10 mps 742 mmHg 81%
    08:00 +11°C° 0.1 mm 10 mps 742 mmHg 75%
    09:00 +12°C° 0.1 mm 10 mps 743 mmHg 69%
    10:00 +12°C° 0.2 mm 9 mps 744 mmHg 69%
    11:00 +13°C° 0.2 mm 8 mps 744 mmHg 68%
    12:00 +14°C° 0.2 mm 7 mps 745 mmHg 68%
    13:00 +14°C° 0.4 mm 7 mps 745 mmHg 69%
    14:00 +15°C° 0.4 mm 6 mps 746 mmHg 69%
    15:00 +15°C° 0.4 mm 6 mps 747 mmHg 69%
    16:00 +15°C° 0.1 mm 6 mps 747 mmHg 72%
    17:00 +14°C° 0.1 mm 6 mps 748 mmHg 75%
    18:00 +14°C° 0.1 mm 6 mps 748 mmHg 78%
    19:00 +13°C° 0.1 mm 5 mps 749 mmHg 81%
    20:00 +12°C° 0.1 mm 5 mps 749 mmHg 85%
    21:00 +9°C° 0.1 mm 5 mps 750 mmHg 88%
    22:00 +11°C° 0.2 mm 4 mps 750 mmHg 88%
    23:00 +11°C° 0.2 mm 4 mps 750 mmHg 88%

    Day after tomorrow, 7 June, Sunday

    Time Temperature Precipitation Wind Pressure Humidity
    00:00 +11°C° 0.2 mm 4 mps 750 mmHg 89%
    01:00 +11°C° 0.1 mm 4 mps 750 mmHg 89%
    02:00 +10°C° 0.1 mm 5 mps 751 mmHg 90%
    03:00 +10°C° 0.1 mm 5 mps 751 mmHg 90%
    04:00 +10°C° 0 mm 5 mps 751 mmHg 90%
    05:00 +10°C° 0 mm 5 mps 752 mmHg 90%
    06:00 +12°C° 0 mm 4 mps 752 mmHg 90%
    07:00 +13°C° 0 mm 5 mps 753 mmHg 86%
    08:00 +14°C° 0 mm 5 mps 753 mmHg 81%
    09:00 +14°C° 0 mm 5 mps 754 mmHg 76%
    10:00 +14°C° 0.1 mm 5 mps 755 mmHg 78%
    11:00 +14°C° 0.1 mm 4 mps 755 mmHg 79%
    12:00 +14°C° 0.1 mm 4 mps 756 mmHg 80%
    13:00 +14°C° 0 mm 4 mps 756 mmHg 77%
    14:00 +15°C° 0 mm 4 mps 757 mmHg 74%
    15:00 +15°C° 0 mm 4 mps 757 mmHg 70%
    16:00 +16°C° 0.2 mm 3 mps 757 mmHg 74%
    17:00 +14°C° 0.2 mm 3 mps 758 mmHg 78%
    18:00 +14°C° 0.2 mm 3 mps 758 mmHg 83%
    19:00 +13°C° 0.1 mm 3 mps 759 mmHg 84%
    20:00 +12°C° 0.1 mm 3 mps 760 mmHg 85%
    21:00 +10°C° 0.1 mm 3 mps 760 mmHg 87%
    22:00 +9°C° 0 mm 3 mps 760 mmHg 88%
    23:00 +8°C° 0 mm 3 mps 761 mmHg 88%

    8 June, Monday

    Time Temperature Precipitation Wind Pressure Humidity
    00:00 +7°C° 0 mm 3 mps 761 mmHg 89%
    01:00 +6°C° 0 mm 4 mps 761 mmHg 89%
    02:00 +5°C° 0 mm 4 mps 761 mmHg 88%
    03:00 +5°C° 0 mm 4 mps 762 mmHg 88%
    04:00 +5°C° 0 mm 3 mps 762 mmHg 86%
    05:00 +7°C° 0 mm 3 mps 762 mmHg 84%
    06:00 +7°C° 0 mm 3 mps 762 mmHg 83%
    07:00 +8°C° 0 mm 3 mps 763 mmHg 77%
    08:00 +10°C° 0 mm 3 mps 763 mmHg 70%
    09:00 +12°C° 0 mm 2 mps 763 mmHg 64%
    10:00 +13°C° 0 mm 2 mps 763 mmHg 63%
    11:00 +13°C° 0 mm 2 mps 764 mmHg 62%
    12:00 +14°C° 0 mm 2 mps 764 mmHg 61%
    13:00 +14°C° 0 mm 2 mps 764 mmHg 62%
    14:00 +13°C° 0 mm 3 mps 764 mmHg 62%
    15:00 +13°C° 0 mm 3 mps 764 mmHg 63%
    16:00 +13°C° 0 mm 3 mps 764 mmHg 65%
    17:00 +13°C° 0 mm 3 mps 764 mmHg 66%
    18:00 +13°C° 0 mm 2 mps 764 mmHg 68%
    19:00 +12°C° 0 mm 2 mps 765 mmHg 71%
    20:00 +10°C° 0 mm 2 mps 765 mmHg 74%
    21:00 +9°C° 0 mm 2 mps 765 mmHg 77%
    22:00 +8°C° 0 mm 2 mps 765 mmHg 80%
    23:00 +7°C° 0 mm 2 mps 766 mmHg 83%

    9 June, Tuesday

    Time Temperature Precipitation Wind Pressure Humidity
    00:00 +5°C° 0 mm 3 mps 766 mmHg 86%
    01:00 +6°C° 0 mm 2 mps 766 mmHg 86%
    02:00 +5°C° 0 mm 2 mps 766 mmHg 86%
    03:00 +5°C° 0 mm 2 mps 766 mmHg 86%
    04:00 +6°C° 0 mm 2 mps 766 mmHg 83%
    05:00 +7°C° 0 mm 2 mps 766 mmHg 80%
    06:00 +8°C° 0 mm 2 mps 766 mmHg 77%
    07:00 +9°C° 0 mm 2 mps 766 mmHg 74%
    08:00 +12°C° 0 mm 2 mps 766 mmHg 70%
    09:00 +13°C° 0 mm 1 mps 766 mmHg 67%
    10:00 +13°C° 0 mm 1 mps 766 mmHg 67%
    11:00 +13°C° 0 mm 1 mps 766 mmHg 68%
    12:00 +14°C° 0 mm 1 mps 766 mmHg 68%
    13:00 +14°C° 0 mm 2 mps 766 mmHg 69%
    14:00 +14°C° 0 mm 2 mps 766 mmHg 70%
    15:00 +14°C° 0 mm 2 mps 766 mmHg 70%
    16:00 +14°C° 0 mm 2 mps 766 mmHg 72%
    17:00 +14°C° 0 mm 2 mps 766 mmHg 73%
    18:00 +14°C° 0 mm 2 mps 766 mmHg 74%
    19:00 +12°C° 0 mm 2 mps 766 mmHg 78%
    20:00 +11°C° 0 mm 1 mps 767 mmHg 82%
    21:00 +10°C° 0 mm 1 mps 767 mmHg 87%
    22:00 +9°C° 0 mm 1 mps 767 mmHg 87%
    23:00 +9°C° 0 mm 1 mps 767 mmHg 87%

    10 June, Wednesday

    Time Temperature Precipitation Wind Pressure Humidity
    00:00 +9°C° 0 mm 1 mps 767 mmHg 88%
    01:00 +8°C° 0 mm 1 mps 767 mmHg 87%
    02:00 +7°C° 0 mm 2 mps 767 mmHg 87%
    03:00 +7°C° 0 mm 2 mps 767 mmHg 87%
    04:00 +8°C° 0 mm 2 mps 767 mmHg 86%
    05:00 +9°C° 0 mm 2 mps 767 mmHg 85%
    06:00 +10°C° 0 mm 2 mps 767 mmHg 83%
    07:00 +12°C° 0 mm 2 mps 767 mmHg 78%
    08:00 +14°C° 0 mm 1 mps 767 mmHg 73%
    09:00 +15°C° 0 mm 1 mps 767 mmHg 67%
    10:00 +15°C° 0 mm 1 mps 767 mmHg 66%
    11:00 +16°C° 0 mm 2 mps 767 mmHg 65%
    12:00 +16°C° 0 mm 2 mps 767 mmHg 63%
    13:00 +16°C° 0 mm 2 mps 767 mmHg 63%
    14:00 +16°C° 0 mm 2 mps 767 mmHg 63%
    15:00 +16°C° 0 mm 2 mps 767 mmHg 63%
    16:00 +16°C° 0 mm 2 mps 767 mmHg 65%
    17:00 +16°C° 0 mm 2 mps 767 mmHg 66%
    18:00 +16°C° 0 mm 2 mps 767 mmHg 68%
    19:00 +14°C° 0 mm 2 mps 767 mmHg 72%
    20:00 +13°C° 0 mm 2 mps 768 mmHg 77%
    21:00 +11°C° 0 mm 1 mps 768 mmHg 82%
    22:00 +11°C° 0 mm 1 mps 768 mmHg 83%
    23:00 +10°C° 0 mm 1 mps 768 mmHg 83%
    Show more